Regional Weather Roundup
Issued by NWS Portland, ME

Home | Current Version | Previous Version | Text Only | Print | Product List | Glossary On
Versions: 1 2 3 4 5 6 7 8 9 10 11 12 13 14 15 16 17 18 19 20 21 22 23 24 25 26 27 28 29 30 31 32 33 34 35 36 37 38 39 40 41 42 43 44 45 46 47 48 49 50
000
ASUS41 KGYX 281310
RWRGYX
WEATHER ROUNDUP FOR MAINE AND NEW HAMPSHIRE
NATIONAL WEATHER SERVICE GRAY ME
800 AM EST FRI NOV 28 2014

MEZ002-005-006-010-012-015-018-020-021-024-026-027-029-281400-
MAINE

CITY           SKY/WX    TMP DP  RH WIND       PRES   REMARKS
PORTLAND       LGT SNOW  25  19  78 N8        30.06R
SANFORD        MOCLDY    25  19  80 N5        30.05S
BAR HARBOR     CLEAR     18  16  93 N8        30.04S
WISCASSET      CLOUDY    23  17  78 CALM      30.07R
ROCKLAND       CLOUDY    27  16  63 NE12G21   30.02R WCI  16
FRYEBURG       LGT SNOW  24  22  91 CALM      30.04R FOG
LEWISTONAUBURN MOCLDY    21  19  93 N5        30.04R
AUGUSTA        CLOUDY    19  13  77 N5        30.04R
WATERVILLE     MOCLDY    19  10  68 N5        30.01R
BANGOR         CLOUDY    14  10  84 N6        30.06R
GREENVILLE       N/A     16  12  84 N3        29.94R
MILLINOCKET    PTCLDY    10   7  87 CALM      30.06S
HOULTON        PTCLDY     8   5  87 CALM      30.02S
PRESQUE ISLE   PTCLDY     3   0  85 CALM      30.03R
FRENCHVILLE    PTCLDY     7   4  87 NW7       30.00S
CARIBOU        PTCLDY     9   5  84 NW6       30.03R
$$

NHZ002-005-008-009-011-012-014-281400-
NEW HAMPSHIRE

CITY           SKY/WX    TMP DP  RH WIND       PRES   REMARKS
PORTSMOUTH     FLURRIES  26  21  84 N8        30.04R
ROCHESTER      CLOUDY    24  20  84 N3        30.03S
NASHUA         MOCLDY    27  25  92 CALM      30.07R
MANCHESTER     CLOUDY    26  22  84 N5        30.04R
CONCORD        NOT AVBL
LACONIA        CLOUDY    27  21  80 CALM      30.01S
PLYMOUTH       CLOUDY    26  25  96 W7        30.03S
BERLIN         LGT SNOW  18  16  92 CALM      29.99S FOG
WHITEFIELD     LGT SNOW  21  19  92 CALM      30.01S FOG
JAFFREY          N/A     24  19  81 N5        30.02R
LEBANON        PTCLDY    22  18  85 CALM      30.05R
MT WASHINGTON  SNOWSHWR   1   1 100 W26         N/A  VSB 1/16WCI -23
$$

VTZ005-007-008-281400-
VERMONT

CITY           SKY/WX    TMP DP  RH WIND       PRES   REMARKS
ST JOHNSBURY     N/A     24  22  91 MISG      30.02S
MONTPELIER     LGT SNOW  21  19  92 CALM      30.05S FOG
BURLINGTON     MOCLDY    26  15  63 NW9       30.09S
$$

MAZ007-012-024-CTZ003-RIZ002-NYZ038-NYZ072-281400-
SOUTHERN NEW ENGLAND AND NY

CITY           SKY/WX    TMP DP  RH WIND       PRES   REMARKS
BOSTON         LGT SNOW  29  26  89 NW8       30.05R VSB 1
WORCESTER      MOCLDY    25  21  85 NW8       30.01R
NANTUCKET      CLOUDY    36  32  85 NW17G25   29.96S
PROVIDENCE     MOCLDY    31  25  78 NW8       30.05R
HARTFORD       MOCLDY    31  22  69 NW9       30.08R
ALBANY         PTCLDY    26  18  71 W12       30.12R WCI  16
NEW YORK CITY  PTCLDY    32  23  69 NW14      30.14R
$$

ANZ081-ANZ082-ANZ150-NHZ014-MEZ023>029-281400-
COASTAL MARINE OBSERVATIONS

STATION/POSITION TIME  TEMP    WIND        PRES    WAVE
                       AIR SEA DIR/SP/G            HT/PER
                 (UTC) (F)     (DEG/KT/KT) (MB)    (FT/S)
MOUNT DESERT ROC 1300   27                 1015.4F
MATINICUS ROCK   1300           10/ 19/ 22 1015.4R
PORTLAND WX BUOY 1250   28 48   10/ 14/ 17 1017.4R   3/10
WELLS            1200   26 44  350/  8/ 10 1016.7R
ISLE OF SHOALS   1300   27     350/ 14/ 16 1016.7R
JEFFREYS LEDGE   1221      51                N/A     5/ 5
CASHES LEDGE BUO 1250   34 50   10/ 17/ 21 1015.1R   6/10
$$

.............KEY..............
   WCI - WIND CHILL
   TC  - TEMPERATURE IN CELSIUS
   VSB - VISIBILITY IN MILES
   HX  - HEAT INDEX
   FAIR- INDICATES FEW OR NO CLOUDS BELOW 12,000 FT, WITH NO
         SIGNIFICANT WEATHER AND/OR OBSTRUCTIONS TO VISIBILITY.




USA.gov is the U.S. government's official web portal to all federal, state and local government web resources and services.